Kodiak, AK

3:42 AM AKST on November 21, 2017 (GMT -0900)
Kodiak

Weather History for PADQ - December, 2012

Change the Weather History Date:

Saturday, December 8, 2012

  Actual Average Record
Temperature  
Mean Temperature 36 °F 31 °F  
Max Temperature 40 °F 36 °F 48 °F (1922)
Min Temperature 31 °F 27 °F 6 °F (1975)
Degree Days  
Heating Degree Days 29 34  
Month to date heating degree days 309 267  
Since 1 July heating degree days 3234 3062  
Cooling Degree Days 0 0  
Month to date cooling degree days 0 0  
Year to date cooling degree days 0 1  
Moisture  
Dew Point 35 °F    
Average Humidity 0    
Maximum Humidity 0    
Minimum Humidity 0    
Precipitation  
Precipitation 1.13 in 0.29 in 2.24 in (1985)
Month to date precipitation 1.26 2.23  
Year to date precipitation 53.56 71.50  
Snow  
Snow T in 0.50 in 13.10 in (1996)
Month to date snowfall 2.6 3.6  
Since 1 July snowfall 10.5 11.1  
Snow Depth 3.00 in    
Sea Level Pressure  
Sea Level Pressure 29.33 in    
Wind  
Wind Speed 13 mph (ENE)    
Max Wind Speed 28 mph    
Max Gust Speed 36 mph    
Visibility 6 miles    
Events Rain , Snow    
T = Trace of Precipitation, MM = Missing Value Source: NWS Daily Summary

Daily Weather History Graph

Daily Weather History Graph

Search for Another Location

Airport or City:

Trip Planner

Search our weather history database for the weather conditions in past years. The results will help you decide how hot, cold, wet, or windy it might be!

Date:

Astronomy

Dec. 08, 2012 Rise Set
Actual Time 9:40 AM AKST 4:23 PM AKST
Civil Twilight 8:50 AM AKST 5:14 PM AKST
Nautical Twilight 7:58 AM AKST 6:05 PM AKST
Astronomical Twilight 7:10 AM AKST 6:53 PM AKST
Moon 3:20 AM AKST (12/8) 1:50 PM AKST (12/8)
Length of Visible Light 8h 23m
Length of Day
6h 43m
Waning Crescent, 27% of the Moon is Illuminated
Dec 8
Waning Crescent
Dec 12
New
Dec 19
First Quarter
Dec 28
Full
Jan 4
Last Quarter

Hourly Weather History & Observations

Time (AKST) Temp. Windchill Dew Point Humidity Pressure Visibility Wind Dir Wind Speed Gust Speed Precip Events Conditions
12:09 AM 33.8 °F 25.3 °F 32.0 °F 93% 29.72 in 4.0 mi NE 11.5 mph - 0.01 in Snow Light Snow
12:53 AM 30.9 °F - 28.9 °F 92% 29.71 in 6.0 mi Calm Calm - 0.02 in Snow Light Snow
1:24 AM 35.6 °F 26.2 °F 33.8 °F 93% 29.69 in 5.0 mi ENE 15.0 mph - 0.01 in Rain , Snow Light Rain
1:53 AM 35.1 °F 25.2 °F 34.0 °F 96% 29.67 in 5.0 mi ENE 16.1 mph - 0.02 in Rain , Snow Light Rain
3:53 AM 36.0 °F 25.6 °F 34.0 °F 93% 29.62 in 3.0 mi ENE 18.4 mph - 0.03 in Rain , Snow Light Rain
4:51 AM 37.4 °F 27.8 °F 35.6 °F 93% 29.57 in 3.0 mi ENE 17.3 mph - 0.03 in Rain , Snow Light Rain
4:53 AM 37.0 °F 26.7 °F 35.1 °F 93% 29.58 in 3.0 mi ENE 19.6 mph - 0.03 in Rain , Snow Light Rain
5:18 AM 37.4 °F 27.2 °F 35.6 °F 93% 29.56 in 4.0 mi ENE 19.6 mph 28.8 mph 0.02 in Rain , Snow Light Rain
5:53 AM 37.0 °F 27.0 °F 35.1 °F 93% 29.55 in 5.0 mi ENE 18.4 mph - 0.06 in Rain Light Rain
6:53 AM 37.0 °F 27.0 °F 35.1 °F 93% 29.52 in 6.0 mi ENE 18.4 mph 27.6 mph 0.05 in Rain Light Rain
7:53 AM 37.0 °F 26.7 °F 35.1 °F 93% 29.47 in 5.0 mi ENE 19.6 mph 32.2 mph 0.08 in Rain Rain
8:53 AM 37.0 °F 25.1 °F 34.0 °F 89% 29.43 in 3.0 mi ENE 26.5 mph 33.4 mph 0.12 in Rain Rain
9:53 AM 36.0 °F 25.0 °F 34.0 °F 93% 29.39 in 3.0 mi ENE 20.7 mph 28.8 mph 0.15 in Rain Heavy Rain
10:53 AM 37.0 °F 26.4 °F 35.1 °F 93% 29.33 in 3.0 mi ENE 20.7 mph - 0.16 in Rain Rain
11:53 AM 37.9 °F 27.9 °F 37.0 °F 97% 29.28 in 3.0 mi ENE 19.6 mph 27.6 mph 0.15 in Rain Rain
12:53 PM 39.0 °F 28.8 °F 37.0 °F 93% 29.22 in 3.0 mi ENE 21.9 mph 29.9 mph 0.12 in Rain Rain
1:53 PM 39.9 °F 30.2 °F 37.9 °F 93% 29.15 in 3.0 mi NE 20.7 mph 31.1 mph 0.11 in Rain Light Rain
2:53 PM 39.9 °F 32.5 °F 39.0 °F 97% 29.10 in 3.0 mi NNE 12.7 mph - 0.02 in Rain Light Rain
3:14 PM 39.2 °F 34.2 °F 39.2 °F 100% 29.08 in 2.0 mi North 6.9 mph - 0.01 in Rain Light Rain
3:30 PM 39.2 °F 35.9 °F 37.4 °F 93% 29.09 in 1.0 mi SW 4.6 mph - 0.02 in Rain Light Rain
3:53 PM 37.9 °F 33.5 °F 37.9 °F 100% 29.09 in 2.0 mi SW 5.8 mph - 0.03 in   Overcast
4:27 PM 39.2 °F - 37.4 °F 93% 29.10 in 5.0 mi Calm Calm - N/A   Mostly Cloudy
4:53 PM 37.9 °F 34.4 °F 37.0 °F 97% 29.11 in 5.0 mi NW 4.6 mph - N/A   Mostly Cloudy
4:55 PM 37.4 °F 34.9 °F 37.4 °F 100% 29.10 in 10.0 mi NW 3.5 mph - N/A   Scattered Clouds
5:53 PM 39.0 °F 33.4 °F 36.0 °F 89% 29.14 in 10.0 mi SSW 8.1 mph - N/A   Scattered Clouds
6:53 PM 39.0 °F 32.8 °F 34.0 °F 82% 29.15 in 10.0 mi SSW 9.2 mph - N/A   Clear
7:53 PM 39.9 °F 35.1 °F 34.0 °F 79% 29.17 in 10.0 mi South 6.9 mph - N/A   Scattered Clouds
8:53 PM 39.0 °F 34.8 °F 34.0 °F 82% 29.18 in 10.0 mi South 5.8 mph - 0.00 in Rain Light Rain
9:53 PM 39.0 °F 34.8 °F 33.1 °F 79% 29.20 in 10.0 mi SW 5.8 mph - 0.00 in   Mostly Cloudy
10:53 PM 37.9 °F 33.5 °F 33.1 °F 83% 29.21 in 10.0 mi South 5.8 mph - 0.00 in Rain Light Rain
11:06 PM 37.4 °F 34.9 °F 33.8 °F 87% 29.20 in 10.0 mi South 3.5 mph - 0.01 in Rain Light Rain
11:17 PM 35.6 °F 32.8 °F 33.8 °F 93% 29.20 in 10.0 mi South 3.5 mph - 0.01 in Rain Light Rain
11:53 PM 37.0 °F - 34.0 °F 89% 29.21 in 10.0 mi Calm Calm - 0.02 in   Overcast